Time,TemperatureF,DewpointF,PressureIn,WindDirection,WindDirectionDegrees,WindSpeedMPH,WindSpeedGustMPH,Humidity,HourlyPrecipIn,Conditions,Clouds,dailyrainin,SolarRadiationWatts/m^2,SoftwareType,DateUTC
2013-02-01 00:02:00,41.2,38.2,29.45,North,4,3.5,3.5,89,0.01,RA,OVC,0.00,0.0,WeatherDisplay:10.37,2013-02-01 00:02:00,
2013-02-01 00:07:00,41.1,38.1,29.45,ENE,58,2.3,2.3,89,0.01,RA,OVC,0.00,0.0,WeatherDisplay:10.37,2013-02-01 00:07:00,
2013-02-01 00:12:00,41.0,38.0,29.45,NW,318,3.5,3.5,89,0.02,RA,OVC,0.01,0.0,WeatherDisplay:10.37,2013-02-01 00:12:00,
2013-02-01 00:17:00,41.0,38.0,29.45,North,359,3.5,3.5,89,0.02,RA,OVC,0.01,0.0,WeatherDisplay:10.37,2013-02-01 00:17:00,
2013-02-01 00:22:00,41.0,38.3,29.45,NNW,339,3.5,3.5,90,0.02,RA,OVC,0.02,0.0,WeatherDisplay:10.37,2013-02-01 00:22:00,
2013-02-01 00:27:00,41.0,38.3,29.44,SSE,155,1.2,1.2,90,0.02,RA,OVC,0.02,0.0,WeatherDisplay:10.37,2013-02-01 00:27:00,
2013-02-01 00:32:00,40.9,38.2,29.44,North,349,3.5,3.5,90,0.02,FEW,OVC,0.02,0.0,WeatherDisplay:10.37,2013-02-01 00:32:00,
2013-02-01 00:37:00,41.0,38.3,29.44,SE,131,3.5,3.5,90,0.02,FEW,OVC,0.02,0.0,WeatherDisplay:10.37,2013-02-01 00:37:00,
2013-02-01 00:42:00,41.2,38.2,29.44,ENE,67,2.3,2.3,89,0.02,FEW,OVC,0.02,0.0,WeatherDisplay:10.37,2013-02-01 00:42:00,
2013-02-01 00:47:00,41.2,38.2,29.44,NNW,332,2.3,2.3,89,0.02,FEW,OVC,0.02,0.0,WeatherDisplay:10.37,2013-02-01 00:47:00,
2013-02-01 00:52:00,41.2,38.2,29.44,WNW,293,2.3,2.3,89,0.02,FEW,OVC,0.02,0.0,WeatherDisplay:10.37,2013-02-01 00:52:00,
2013-02-01 00:57:00,41.2,38.2,29.44,SE,139,1.2,1.2,89,0.02,FEW,OVC,0.02,0.0,WeatherDisplay:10.37,2013-02-01 00:57:00,
2013-02-01 01:02:00,41.2,38.5,29.44,SE,129,3.5,3.5,90,0.02,BKN,OVC,0.02,0.0,WeatherDisplay:10.37,2013-02-01 01:02:00,
2013-02-01 01:07:00,41.3,38.6,29.44,SE,139,1.0,1.0,90,0.02,RA,OVC,0.02,0.0,WeatherDisplay:10.37,2013-02-01 01:07:00,
2013-02-01 01:12:00,41.3,38.6,29.44,SW,231,3.5,3.5,90,0.02,RA,OVC,0.03,0.0,WeatherDisplay:10.37,2013-02-01 01:12:00,
2013-02-01 01:17:00,41.2,38.8,29.44,SW,215,2.3,2.3,91,0.02,RA,OVC,0.03,0.0,WeatherDisplay:10.37,2013-02-01 01:17:00,
2013-02-01 01:22:00,41.1,38.7,29.43,NNE,26,1.2,1.2,91,0.02,BKN,OVC,0.03,0.0,WeatherDisplay:10.37,2013-02-01 01:22:00,
2013-02-01 01:27:00,41.0,38.6,29.43,NNW,339,1.2,1.2,91,0.02,BKN,OVC,0.03,0.0,WeatherDisplay:10.37,2013-02-01 01:27:00,
2013-02-01 01:32:00,40.9,38.5,29.43,ESE,102,3.5,3.5,91,0.02,BKN,OVC,0.03,0.0,WeatherDisplay:10.37,2013-02-01 01:32:00,
2013-02-01 01:37:00,40.8,38.4,29.43,SE,130,3.5,3.5,91,0.02,BKN,OVC,0.03,0.0,WeatherDisplay:10.37,2013-02-01 01:37:00,
2013-02-01 01:42:00,40.7,38.3,29.42,South,186,4.6,4.6,91,0.02,BKN,OVC,0.03,0.0,WeatherDisplay:10.37,2013-02-01 01:42:00,
2013-02-01 01:47:00,40.7,38.3,29.42,SSE,152,1.2,1.2,91,0.02,RA,OVC,0.04,0.0,WeatherDisplay:10.37,2013-02-01 01:47:00,
2013-02-01 01:52:00,40.6,38.2,29.42,NW,319,2.3,2.3,91,0.02,RA,OVC,0.04,0.0,WeatherDisplay:10.37,2013-02-01 01:52:00,
2013-02-01 01:57:00,40.6,38.2,29.41,NNW,330,3.5,3.5,91,0.02,BKN,OVC,0.04,0.0,WeatherDisplay:10.37,2013-02-01 01:57:00,
2013-02-01 02:02:00,40.8,38.1,29.41,South,174,3.5,3.5,90,0.02,BKN,OVC,0.04,0.0,WeatherDisplay:10.37,2013-02-01 02:02:00,
2013-02-01 02:07:00,40.9,38.2,29.41,ESE,108,2.3,2.3,90,0.02,BKN,OVC,0.04,0.0,WeatherDisplay:10.37,2013-02-01 02:07:00,
2013-02-01 02:12:00,40.9,38.5,29.41,NNW,328,1.2,1.2,91,0.01,BKN,OVC,0.04,0.0,WeatherDisplay:10.37,2013-02-01 02:12:00,
2013-02-01 02:17:00,41.0,38.6,29.41,ESE,111,1.2,1.2,91,0.01,BKN,OVC,0.04,0.0,WeatherDisplay:10.37,2013-02-01 02:17:00,
2013-02-01 02:22:00,41.1,38.7,29.41,NNW,342,1.2,1.2,91,0.02,RA,OVC,0.05,0.0,WeatherDisplay:10.37,2013-02-01 02:22:00,
2013-02-01 02:27:00,41.0,38.6,29.41,North,4,1.2,0.0,91,0.02,RA,OVC,0.05,0.0,WeatherDisplay:10.37,2013-02-01 02:27:00,
2013-02-01 02:32:00,40.9,38.5,29.41,ENE,63,0.0,0.0,91,0.02,BKN,OVC,0.05,0.0,WeatherDisplay:10.37,2013-02-01 02:32:00,
2013-02-01 02:37:00,40.9,38.8,29.42,WNW,287,2.3,2.3,92,0.02,BKN,OVC,0.05,0.0,WeatherDisplay:10.37,2013-02-01 02:37:00,
2013-02-01 02:42:00,40.9,38.8,29.41,WNW,291,1.2,1.2,92,0.02,BKN,OVC,0.05,0.0,WeatherDisplay:10.37,2013-02-01 02:42:00,
2013-02-01 02:47:00,40.8,38.7,29.41,NW,304,1.2,0.0,92,0.01,BKN,OVC,0.05,0.0,WeatherDisplay:10.37,2013-02-01 02:47:00,
2013-02-01 02:52:00,40.7,38.6,29.41,NW,304,1.2,1.2,92,0.01,BKN,OVC,0.05,0.0,WeatherDisplay:10.37,2013-02-01 02:52:00,
2013-02-01 02:57:00,40.6,38.5,29.41,NW,308,1.2,1.2,92,0.01,BKN,OVC,0.05,0.0,WeatherDisplay:10.37,2013-02-01 02:57:00,
2013-02-01 03:02:00,40.6,38.5,29.41,NW,312,1.2,1.2,92,0.01,BKN,OVC,0.05,0.0,WeatherDisplay:10.37,2013-02-01 03:02:00,
2013-02-01 03:07:00,40.6,38.5,29.41,ENE,71,2.3,2.3,92,0.01,BKN,OVC,0.05,0.0,WeatherDisplay:10.37,2013-02-01 03:07:00,
2013-02-01 03:12:00,40.7,38.0,29.40,North,4,3.5,3.5,90,0.01,BKN,OVC,0.05,0.0,WeatherDisplay:10.37,2013-02-01 03:12:00,
2013-02-01 03:17:00,40.6,37.6,29.40,North,9,3.5,3.5,89,0.01,-RA,OVC,0.05,0.0,WeatherDisplay:10.37,2013-02-01 03:17:00,
2013-02-01 03:22:00,40.4,37.1,29.40,NE,53,1.2,1.2,88,0.00,-RA,OVC,0.05,0.0,WeatherDisplay:10.37,2013-02-01 03:22:00,
2013-02-01 03:27:00,40.1,36.8,29.40,NNW,346,1.2,1.2,88,0.00,-RA,OVC,0.05,0.0,WeatherDisplay:10.37,2013-02-01 03:27:00,
2013-02-01 03:32:00,39.9,36.6,29.40,NW,321,1.2,1.2,88,0.00,BKN,OVC,0.05,0.0,WeatherDisplay:10.37,2013-02-01 03:32:00,
2013-02-01 03:37:00,39.7,36.4,29.40,North,350,0.0,0.0,88,0.00,BKN,OVC,0.05,0.0,WeatherDisplay:10.37,2013-02-01 03:37:00,
2013-02-01 03:42:00,39.4,36.4,29.40,ESE,116,1.2,0.0,89,0.00,BKN,OVC,0.05,0.0,WeatherDisplay:10.37,2013-02-01 03:42:00,
2013-02-01 03:48:00,39.1,36.1,29.40,SE,132,1.2,1.2,89,0.00,BKN,OVC,0.05,0.0,WeatherDisplay:10.37,2013-02-01 03:48:00,
2013-02-01 03:53:00,38.9,36.2,29.39,SE,146,2.3,2.3,90,0.00,BKN,OVC,0.05,0.0,WeatherDisplay:10.37,2013-02-01 03:53:00,
2013-02-01 03:58:00,38.9,36.2,29.39,SE,130,1.2,1.2,90,0.00,BKN,OVC,0.05,0.0,WeatherDisplay:10.37,2013-02-01 03:58:00,
2013-02-01 04:03:00,38.8,36.1,29.39,NNE,13,0.0,0.0,90,0.00,-RA,OVC,0.05,0.0,WeatherDisplay:10.37,2013-02-01 04:03:00,
2013-02-01 04:08:00,38.9,36.2,29.39,NNE,13,1.2,1.2,90,0.00,-RA,OVC,0.05,0.0,WeatherDisplay:10.37,2013-02-01 04:08:00,
2013-02-01 04:13:00,39.0,36.3,29.39,NNE,13,1.2,1.2,90,0.00,-RA,OVC,0.05,0.0,WeatherDisplay:10.37,2013-02-01 04:13:00,
2013-02-01 04:18:00,39.2,36.2,29.39,NE,49,1.2,1.2,89,0.00,-RA,OVC,0.05,0.0,WeatherDisplay:10.37,2013-02-01 04:18:00,
2013-02-01 04:23:00,39.4,36.4,29.39,SW,236,2.3,2.3,89,0.00,-RA,OVC,0.05,0.0,WeatherDisplay:10.37,2013-02-01 04:23:00,
2013-02-01 04:28:00,39.5,36.5,29.39,North,354,1.2,1.2,89,0.00,-RA,OVC,0.05,0.0,WeatherDisplay:10.37,2013-02-01 04:28:00,
2013-02-01 04:33:00,39.5,36.2,29.39,NW,326,1.2,1.2,88,0.00,-RA,OVC,0.05,0.0,WeatherDisplay:10.37,2013-02-01 04:33:00,
2013-02-01 04:38:00,39.3,36.0,29.39,ESE,122,1.2,1.2,88,0.00,-RA,OVC,0.05,0.0,WeatherDisplay:10.37,2013-02-01 04:38:00,
2013-02-01 04:43:00,39.3,36.0,29.39,NNW,340,1.2,1.2,88,0.00,-RA,OVC,0.05,0.0,WeatherDisplay:10.37,2013-02-01 04:43:00,
2013-02-01 04:48:00,39.2,35.9,29.39,NNW,329,1.2,1.2,88,0.00,-RA,OVC,0.05,0.0,WeatherDisplay:10.37,2013-02-01 04:48:00,
2013-02-01 04:53:00,39.2,35.9,29.39,NW,312,1.2,1.2,88,0.00,-RA,OVC,0.05,0.0,WeatherDisplay:10.37,2013-02-01 04:53:00,
2013-02-01 04:58:00,39.1,35.8,29.39,NW,311,0.0,0.0,88,0.00,-RA,OVC,0.05,0.0,WeatherDisplay:10.37,2013-02-01 04:58:00,
2013-02-01 05:00:00,39.0,35.7,29.38,NW,310,0.0,0.0,88,0.00,-RA,OVC,0.05,0.0,WeatherDisplay:10.37,2013-02-01 05:00:00,
2013-02-01 05:03:00,38.9,35.9,29.39,NW,312,0.0,0.0,89,0.00,-RA,OVC,0.05,0.0,WeatherDisplay:10.37,2013-02-01 05:03:00,
2013-02-01 05:08:00,38.9,35.9,29.38,SE,140,1.2,1.2,89,0.00,-RA,OVC,0.05,0.0,WeatherDisplay:10.37,2013-02-01 05:08:00,
2013-02-01 05:13:00,38.9,35.9,29.38,North,354,1.0,0.0,89,0.00,-RA,OVC,0.05,0.0,WeatherDisplay:10.37,2013-02-01 05:13:00,
2013-02-01 05:18:00,38.8,35.8,29.39,ESE,119,0.0,0.0,89,0.00,-RA,OVC,0.05,0.0,WeatherDisplay:10.37,2013-02-01 05:18:00,
2013-02-01 05:23:00,38.7,36.0,29.39,ENE,78,0.0,0.0,90,0.00,-RA,OVC,0.05,0.0,WeatherDisplay:10.37,2013-02-01 05:23:00,
2013-02-01 05:28:00,38.6,35.9,29.38,NNW,332,1.2,0.0,90,0.01,-RA,OVC,0.06,0.0,WeatherDisplay:10.37,2013-02-01 05:28:00,
2013-02-01 05:33:00,38.6,36.2,29.38,North,358,0.0,0.0,91,0.02,-RA,OVC,0.06,0.0,WeatherDisplay:10.37,2013-02-01 05:33:00,
2013-02-01 05:38:00,38.5,36.1,29.38,ESE,110,0.0,0.0,91,0.02,-RA,OVC,0.06,0.0,WeatherDisplay:10.37,2013-02-01 05:38:00,
2013-02-01 05:43:00,38.4,36.0,29.38,WNW,291,1.2,1.2,91,0.02,-RA,OVC,0.06,0.0,WeatherDisplay:10.37,2013-02-01 05:43:00,
2013-02-01 05:48:00,38.3,35.9,29.37,West,267,1.0,1.0,91,0.02,SCT,OVC,0.06,0.0,WeatherDisplay:10.37,2013-02-01 05:48:00,
2013-02-01 05:53:00,38.5,36.4,29.37,ESE,122,0.0,0.1,92,0.02,SCT,OVC,0.06,0.0,WeatherDisplay:10.37,2013-02-01 05:53:00,
2013-02-01 05:58:00,38.7,36.6,29.37,SE,130,0.0,0.0,92,0.02,SCT,OVC,0.06,0.0,WeatherDisplay:10.37,2013-02-01 05:58:00,
2013-02-01 06:03:00,38.7,36.6,29.37,East,86,2.3,0.0,92,0.02,SCT,OVC,0.06,0.0,WeatherDisplay:10.37,2013-02-01 06:03:00,
2013-02-01 06:08:00,38.7,36.6,29.37,SE,145,2.3,2.3,92,0.02,SCT,OVC,0.06,0.0,WeatherDisplay:10.37,2013-02-01 06:08:00,
2013-02-01 06:13:00,38.9,36.8,29.37,East,101,1.2,0.0,92,0.02,SCT,OVC,0.06,0.0,WeatherDisplay:10.37,2013-02-01 06:13:00,
2013-02-01 06:18:00,38.9,36.5,29.37,NNW,343,0.0,0.0,91,0.02,SCT,OVC,0.06,0.0,WeatherDisplay:10.37,2013-02-01 06:18:00,
2013-02-01 06:23:00,38.9,36.5,29.37,North,11,1.2,1.2,91,0.02,SCT,OVC,0.06,0.0,WeatherDisplay:10.37,2013-02-01 06:23:00,
2013-02-01 06:28:00,38.8,36.1,29.37,North,11,0.0,0.0,90,0.01,SCT,OVC,0.06,0.0,WeatherDisplay:10.37,2013-02-01 06:28:00,
2013-02-01 06:33:00,38.8,36.4,29.36,NNW,339,0.0,0.0,91,0.00,SCT,OVC,0.06,0.0,WeatherDisplay:10.37,2013-02-01 06:33:00,
2013-02-01 06:38:00,38.9,36.5,29.36,NNW,339,0.0,0.0,91,0.00,SCT,OVC,0.06,0.0,WeatherDisplay:10.37,2013-02-01 06:38:00,
2013-02-01 06:43:00,38.7,36.0,29.36,NNW,338,0.0,0.0,90,0.00,SCT,OVC,0.06,0.0,WeatherDisplay:10.37,2013-02-01 06:43:00,
2013-02-01 06:48:00,38.5,35.8,29.36,NNW,339,0.0,0.0,90,0.00,SCT,OVC,0.06,0.0,WeatherDisplay:10.37,2013-02-01 06:48:00,
2013-02-01 06:53:00,38.5,36.1,29.36,NNW,343,0.0,0.0,91,0.00,SCT,OVC,0.06,0.0,WeatherDisplay:10.37,2013-02-01 06:53:00,
2013-02-01 06:58:00,38.3,35.9,29.36,NNW,342,1.2,0.0,91,0.00,SCT,OVC,0.06,0.0,WeatherDisplay:10.37,2013-02-01 06:58:00,
2013-02-01 07:03:00,38.3,36.2,29.36,ESE,120,1.2,1.2,92,0.00,SCT,OVC,0.06,0.0,WeatherDisplay:10.37,2013-02-01 07:03:00,
2013-02-01 07:08:00,38.5,36.4,29.36,ESE,120,1.2,0.0,92,0.00,SCT,OVC,0.06,0.0,WeatherDisplay:10.37,2013-02-01 07:08:00,
2013-02-01 07:13:00,38.7,36.6,29.36,ESE,114,1.2,0.0,92,0.00,SCT,OVC,0.06,0.0,WeatherDisplay:10.37,2013-02-01 07:13:00,
2013-02-01 07:18:00,38.7,36.6,29.36,ESE,110,0.0,0.0,92,0.00,SCT,OVC,0.06,0.0,WeatherDisplay:10.37,2013-02-01 07:18:00,
2013-02-01 07:23:00,38.8,36.7,29.36,SE,136,1.2,0.0,92,0.00,SCT,OVC,0.06,0.0,WeatherDisplay:10.37,2013-02-01 07:23:00,
2013-02-01 07:28:00,38.9,36.8,29.36,SE,135,1.2,1.2,92,0.00,SCT,OVC,0.06,0.0,WeatherDisplay:10.37,2013-02-01 07:28:00,
2013-02-01 07:33:00,38.9,36.8,29.36,SE,136,0.0,0.0,92,0.00,SCT,OVC,0.06,0.0,WeatherDisplay:10.37,2013-02-01 07:33:00,
2013-02-01 07:38:00,39.0,36.9,29.36,SSW,194,1.2,1.2,92,0.00,SCT,OVC,0.06,0.0,WeatherDisplay:10.37,2013-02-01 07:38:00,
2013-02-01 07:43:00,39.1,37.0,29.36,SSE,157,4.6,4.6,92,0.00,SCT,OVC,0.06,0.0,WeatherDisplay:10.37,2013-02-01 07:43:00,
2013-02-01 07:48:00,39.3,37.2,29.36,SE,139,1.2,1.2,92,0.00,FEW,OVC,0.06,0.0,WeatherDisplay:10.37,2013-02-01 07:48:00,
2013-02-01 07:53:00,39.4,37.3,29.36,SE,131,1.2,1.2,92,0.00,FEW,OVC,0.06,0.0,WeatherDisplay:10.37,2013-02-01 07:53:00,
2013-02-01 07:58:00,39.3,37.2,29.36,SE,131,1.2,1.2,92,0.00,FEW,OVC,0.06,0.0,WeatherDisplay:10.37,2013-02-01 07:58:00,
2013-02-01 08:03:00,39.3,37.2,29.36,ESE,120,1.2,0.0,92,0.00,FEW,OVC,0.06,0.0,WeatherDisplay:10.37,2013-02-01 08:03:00,
2013-02-01 08:08:00,39.3,37.2,29.36,SE,134,1.2,0.0,92,0.00,FEW,OVC,0.06,0.0,WeatherDisplay:10.37,2013-02-01 08:08:00,
2013-02-01 08:13:00,39.4,37.3,29.36,ESE,115,0.0,0.3,92,0.00,FEW,OVC,0.06,0.0,WeatherDisplay:10.37,2013-02-01 08:13:00,
2013-02-01 08:18:00,39.4,37.3,29.36,SE,134,2.3,2.3,92,0.00,FEW,OVC,0.06,0.0,WeatherDisplay:10.37,2013-02-01 08:18:00,
2013-02-01 08:23:00,39.5,37.4,29.37,East,99,2.0,2.0,92,0.00,FEW,OVC,0.06,0.0,WeatherDisplay:10.37,2013-02-01 08:23:00,
2013-02-01 08:28:00,39.6,37.5,29.37,SE,139,1.0,1.0,92,0.00,FEW,OVC,0.06,0.0,WeatherDisplay:10.37,2013-02-01 08:28:00,
2013-02-01 08:33:00,39.7,37.6,29.37,SSW,195,0.0,0.0,92,0.00,FEW,OVC,0.06,0.0,WeatherDisplay:10.37,2013-02-01 08:33:00,
2013-02-01 08:38:00,39.7,37.6,29.37,SSW,198,0.0,0.0,92,0.00,FEW,OVC,0.06,0.0,WeatherDisplay:10.37,2013-02-01 08:38:00,
2013-02-01 08:43:00,39.8,37.7,29.37,SSW,197,0.0,0.0,92,0.00,FEW,OVC,0.06,0.0,WeatherDisplay:10.37,2013-02-01 08:43:00,
2013-02-01 08:49:00,39.9,37.8,29.37,South,190,0.0,0.0,92,0.00,FEW,OVC,0.06,0.0,WeatherDisplay:10.37,2013-02-01 08:49:00,
2013-02-01 08:54:00,39.9,37.8,29.37,South,190,0.0,0.0,92,0.00,FEW,OVC,0.06,0.0,WeatherDisplay:10.37,2013-02-01 08:54:00,
2013-02-01 08:59:00,39.9,37.8,29.37,South,190,0.0,0.0,92,0.00,FEW,OVC,0.06,0.0,WeatherDisplay:10.37,2013-02-01 08:59:00,
2013-02-01 09:04:00,39.9,37.8,29.38,South,190,0.0,0.0,92,0.00,FEW,OVC,0.06,0.0,WeatherDisplay:10.37,2013-02-01 09:04:00,
2013-02-01 09:09:00,39.9,37.8,29.38,South,190,0.0,0.0,92,0.00,FEW,OVC,0.06,0.0,WeatherDisplay:10.37,2013-02-01 09:09:00,
2013-02-01 09:14:00,39.9,37.8,29.38,South,190,0.0,0.0,92,0.01,RA,OVC,0.07,0.0,WeatherDisplay:10.37,2013-02-01 09:14:00,
2013-02-01 09:19:00,39.9,37.8,29.38,South,190,0.0,0.0,92,0.01,RA,OVC,0.07,0.0,WeatherDisplay:10.37,2013-02-01 09:19:00,
2013-02-01 09:24:00,39.9,37.8,29.38,South,188,0.0,0.0,92,0.01,FEW,OVC,0.07,0.0,WeatherDisplay:10.37,2013-02-01 09:24:00,
2013-02-01 09:29:00,39.9,38.0,29.38,South,188,0.0,0.0,93,0.01,FEW,OVC,0.07,0.0,WeatherDisplay:10.37,2013-02-01 09:29:00,
2013-02-01 09:34:00,40.0,38.1,29.38,South,190,0.0,0.0,93,0.02,RA,OVC,0.08,0.0,WeatherDisplay:10.37,2013-02-01 09:34:00,
2013-02-01 09:39:00,40.0,38.1,29.38,South,186,0.0,0.0,93,0.02,RA,OVC,0.08,0.0,WeatherDisplay:10.37,2013-02-01 09:39:00,
2013-02-01 09:44:00,40.1,38.2,29.38,SW,224,0.0,0.0,93,0.02,FEW,OVC,0.08,0.0,WeatherDisplay:10.37,2013-02-01 09:44:00,
2013-02-01 09:49:00,40.2,38.3,29.38,NW,309,1.2,1.2,93,0.02,FEW,OVC,0.08,0.0,WeatherDisplay:10.37,2013-02-01 09:49:00,
2013-02-01 09:54:00,40.4,38.5,29.39,West,273,2.3,2.3,93,0.02,FEW,OVC,0.08,0.0,WeatherDisplay:10.37,2013-02-01 09:54:00,
2013-02-01 09:59:00,40.4,38.8,29.39,WNW,294,1.2,1.2,94,0.02,RA,OVC,0.09,0.0,WeatherDisplay:10.37,2013-02-01 09:59:00,
2013-02-01 10:04:00,40.5,38.9,29.39,WSW,250,1.2,1.2,94,0.02,-RA,OVC,0.09,0.0,WeatherDisplay:10.37,2013-02-01 10:04:00,
2013-02-01 10:12:00,40.5,38.9,29.39,WNW,302,1.2,1.2,94,0.02,-RA,OVC,0.09,0.0,WeatherDisplay:10.37,2013-02-01 10:12:00,
2013-02-01 10:17:00,40.5,38.9,29.39,WNW,303,1.2,1.2,94,0.02,-RA,OVC,0.09,0.0,WeatherDisplay:10.37,2013-02-01 10:17:00,
2013-02-01 10:22:00,40.5,38.6,29.39,WNW,301,1.2,0.0,93,0.02,-RA,OVC,0.09,0.0,WeatherDisplay:10.37,2013-02-01 10:22:00,
2013-02-01 10:27:00,40.6,39.0,29.39,WNW,295,0.0,0.0,94,0.02,-RA,OVC,0.09,0.0,WeatherDisplay:10.37,2013-02-01 10:27:00,
2013-02-01 10:32:00,40.8,39.2,29.39,WNW,295,0.0,0.0,94,0.02,-RA,OVC,0.09,0.0,WeatherDisplay:10.37,2013-02-01 10:32:00,
2013-02-01 10:37:00,40.9,39.0,29.40,NW,319,0.0,0.0,93,0.01,-RA,OVC,0.09,0.0,WeatherDisplay:10.37,2013-02-01 10:37:00,
2013-02-01 10:42:00,41.1,39.2,29.40,WNW,285,1.2,1.2,93,0.01,-RA,OVC,0.09,0.0,WeatherDisplay:10.37,2013-02-01 10:42:00,
2013-02-01 10:47:00,41.2,39.1,29.40,NW,323,0.0,0.0,92,0.01,-RA,OVC,0.09,0.0,WeatherDisplay:10.37,2013-02-01 10:47:00,
2013-02-01 10:52:00,41.3,38.9,29.40,NW,314,1.2,1.2,91,0.01,-RA,OVC,0.09,0.0,WeatherDisplay:10.37,2013-02-01 10:52:00,
2013-02-01 10:57:00,41.5,39.1,29.40,North,352,1.2,1.2,91,0.01,-RA,OVC,0.09,0.0,WeatherDisplay:10.37,2013-02-01 10:57:00,
2013-02-01 11:02:00,41.6,39.2,29.40,NW,326,1.2,1.2,91,0.00,-RA,OVC,0.09,0.0,WeatherDisplay:10.37,2013-02-01 11:02:00,
2013-02-01 11:07:00,41.5,39.1,29.40,NW,321,1.0,1.0,91,0.00,-RA,OVC,0.09,0.0,WeatherDisplay:10.37,2013-02-01 11:07:00,
2013-02-01 11:12:00,41.5,39.1,29.40,NE,49,1.2,1.2,91,0.00,-RA,OVC,0.09,0.0,WeatherDisplay:10.37,2013-02-01 11:12:00,
2013-02-01 11:17:00,41.5,39.1,29.40,NW,305,1.2,1.2,91,0.00,-RA,OVC,0.09,0.0,WeatherDisplay:10.37,2013-02-01 11:17:00,
2013-02-01 11:22:00,41.6,39.4,29.40,WNW,301,1.2,0.0,92,0.00,-RA,OVC,0.09,0.0,WeatherDisplay:10.37,2013-02-01 11:22:00,
2013-02-01 11:27:00,41.7,39.5,29.40,NW,317,0.0,0.0,92,0.00,-RA,OVC,0.09,0.0,WeatherDisplay:10.37,2013-02-01 11:27:00,
2013-02-01 11:32:00,41.7,39.5,29.40,NW,304,0.0,0.0,92,0.00,BKN,OVC,0.09,0.0,WeatherDisplay:10.37,2013-02-01 11:32:00,
2013-02-01 11:37:00,41.9,39.5,29.41,NNW,342,1.2,1.2,91,0.00,BKN,OVC,0.09,0.0,WeatherDisplay:10.37,2013-02-01 11:37:00,
2013-02-01 11:42:00,42.2,39.8,29.41,WNW,296,2.0,2.0,91,0.00,BKN,OVC,0.09,0.0,WeatherDisplay:10.37,2013-02-01 11:42:00,
2013-02-01 11:47:00,42.4,39.7,29.41,NNW,343,1.2,0.0,90,0.00,BKN,OVC,0.09,0.0,WeatherDisplay:10.37,2013-02-01 11:47:00,
2013-02-01 11:52:00,42.5,39.8,29.41,NNW,330,1.2,1.2,90,0.00,BKN,OVC,0.09,0.0,WeatherDisplay:10.37,2013-02-01 11:52:00,
2013-02-01 11:57:00,42.6,39.6,29.42,WNW,293,1.2,1.2,89,0.00,BKN,OVC,0.09,0.0,WeatherDisplay:10.37,2013-02-01 11:57:00,
2013-02-01 12:02:00,42.7,39.7,29.42,NNW,332,0.0,0.0,89,0.00,-RA,OVC,0.09,0.0,WeatherDisplay:10.37,2013-02-01 12:02:00,
2013-02-01 12:07:00,42.9,40.2,29.42,WSW,256,0.0,0.0,90,0.00,-RA,OVC,0.09,0.0,WeatherDisplay:10.37,2013-02-01 12:07:00,
2013-02-01 12:12:00,43.0,38.8,29.42,WNW,294,3.5,3.5,85,0.00,-RA,OVC,0.09,0.0,WeatherDisplay:10.37,2013-02-01 12:12:00,
2013-02-01 12:17:00,43.1,38.6,29.43,West,266,2.3,2.3,84,0.00,-RA,OVC,0.09,0.0,WeatherDisplay:10.37,2013-02-01 12:17:00,
2013-02-01 12:22:00,43.2,38.1,29.43,NW,311,2.3,2.3,82,0.00,-RA,OVC,0.09,0.0,WeatherDisplay:10.37,2013-02-01 12:22:00,
2013-02-01 12:27:00,43.1,37.7,29.43,WNW,296,4.6,4.6,81,0.00,-RA,OVC,0.09,0.0,WeatherDisplay:10.37,2013-02-01 12:27:00,
2013-02-01 12:32:00,43.0,37.6,29.43,WNW,296,2.3,2.3,81,0.00,-RA,OVC,0.09,0.0,WeatherDisplay:10.37,2013-02-01 12:32:00,
2013-02-01 12:37:00,42.8,37.4,29.44,WNW,295,3.5,3.5,81,0.00,-RA,OVC,0.09,0.0,WeatherDisplay:10.37,2013-02-01 12:37:00,
2013-02-01 12:42:00,42.5,37.4,29.44,SE,141,2.3,2.3,82,0.00,-RA,OVC,0.09,0.0,WeatherDisplay:10.37,2013-02-01 12:42:00,
2013-02-01 12:47:00,42.3,37.2,29.44,West,280,4.6,4.6,82,0.00,BKN,OVC,0.09,0.0,WeatherDisplay:10.37,2013-02-01 12:47:00,
2013-02-01 12:52:00,42.1,37.0,29.44,WSW,256,6.0,6.0,82,0.00,BKN,OVC,0.09,0.0,WeatherDisplay:10.37,2013-02-01 12:52:00,
2013-02-01 12:57:00,41.8,36.7,29.44,WSW,256,5.8,5.8,82,0.00,BKN,OVC,0.09,0.0,WeatherDisplay:10.37,2013-02-01 12:57:00,
2013-02-01 13:02:00,41.7,36.3,29.44,NW,305,9.2,9.2,81,0.00,BKN,OVC,0.09,0.0,WeatherDisplay:10.37,2013-02-01 13:02:00,
2013-02-01 13:07:00,41.7,36.3,29.44,WSW,250,5.0,5.0,81,0.00,BKN,OVC,0.09,0.0,WeatherDisplay:10.37,2013-02-01 13:07:00,
2013-02-01 13:12:00,41.7,36.0,29.44,West,267,5.8,5.8,80,0.00,BKN,OVC,0.09,0.0,WeatherDisplay:10.37,2013-02-01 13:12:00,
2013-02-01 13:17:00,41.7,35.7,29.45,SSW,192,6.9,6.9,79,0.00,BKN,OVC,0.09,0.0,WeatherDisplay:10.37,2013-02-01 13:17:00,
2013-02-01 13:22:00,41.7,35.7,29.45,WSW,249,5.8,5.8,79,0.00,BKN,OVC,0.09,0.0,WeatherDisplay:10.37,2013-02-01 13:22:00,
2013-02-01 13:27:00,41.7,35.7,29.45,SW,218,9.2,9.2,79,0.00,BKN,OVC,0.09,0.0,WeatherDisplay:10.37,2013-02-01 13:27:00,
2013-02-01 13:32:00,41.7,35.3,29.45,WSW,240,8.1,8.1,78,0.00,BKN,OVC,0.09,0.0,WeatherDisplay:10.37,2013-02-01 13:32:00,
2013-02-01 13:38:00,41.6,35.6,29.45,SE,127,6.9,6.9,79,0.00,BKN,OVC,0.09,0.0,WeatherDisplay:10.37,2013-02-01 13:38:00,
2013-02-01 13:43:00,41.6,35.2,29.45,WSW,252,5.8,5.8,78,0.00,BKN,OVC,0.09,0.0,WeatherDisplay:10.37,2013-02-01 13:43:00,
2013-02-01 13:48:00,41.6,34.9,29.45,WSW,253,6.9,6.9,77,0.00,BKN,OVC,0.09,0.0,WeatherDisplay:10.37,2013-02-01 13:48:00,
2013-02-01 13:53:00,41.6,34.9,29.46,West,269,8.1,8.1,77,0.00,BKN,OVC,0.09,0.0,WeatherDisplay:10.37,2013-02-01 13:53:00,
2013-02-01 13:58:00,41.6,34.9,29.46,WSW,255,6.9,6.9,77,0.00,BKN,OVC,0.09,0.0,WeatherDisplay:10.37,2013-02-01 13:58:00,
2013-02-01 14:03:00,41.6,34.9,29.46,SSW,200,8.1,8.1,77,0.00,SCT,OVC,0.09,0.0,WeatherDisplay:10.37,2013-02-01 14:03:00,
2013-02-01 14:08:00,41.6,34.9,29.46,South,171,6.9,6.9,77,0.00,SCT,OVC,0.09,0.0,WeatherDisplay:10.37,2013-02-01 14:08:00,
2013-02-01 14:13:00,41.6,34.6,29.46,ENE,57,8.1,8.1,76,0.00,SCT,OVC,0.09,0.0,WeatherDisplay:10.37,2013-02-01 14:13:00,
2013-02-01 14:18:00,41.7,34.4,29.47,WNW,302,6.9,6.9,75,0.00,SCT,OVC,0.09,0.0,WeatherDisplay:10.37,2013-02-01 14:18:00,
2013-02-01 14:23:00,41.7,34.4,29.46,North,6,8.1,8.1,75,0.00,SCT,OVC,0.09,0.0,WeatherDisplay:10.37,2013-02-01 14:23:00,
2013-02-01 14:28:00,41.6,34.6,29.47,SW,235,6.9,6.9,76,0.00,SCT,OVC,0.09,0.0,WeatherDisplay:10.37,2013-02-01 14:28:00,
2013-02-01 14:33:00,41.5,34.8,29.47,West,271,6.9,6.9,77,0.00,SCT,OVC,0.09,0.0,WeatherDisplay:10.37,2013-02-01 14:33:00,
2013-02-01 14:38:00,41.5,34.5,29.47,WSW,238,6.9,6.9,76,0.00,SCT,OVC,0.09,0.0,WeatherDisplay:10.37,2013-02-01 14:38:00,
2013-02-01 14:43:00,41.5,34.5,29.47,East,95,5.8,5.8,76,0.00,SCT,OVC,0.09,0.0,WeatherDisplay:10.37,2013-02-01 14:43:00,
2013-02-01 14:48:00,41.5,34.8,29.47,NE,40,3.5,3.7,77,0.00,SCT,OVC,0.09,0.0,WeatherDisplay:10.37,2013-02-01 14:48:00,
2013-02-01 14:53:00,41.5,34.2,29.48,SE,146,11.5,11.5,75,0.00,SCT,OVC,0.09,0.0,WeatherDisplay:10.37,2013-02-01 14:53:00,
2013-02-01 14:58:00,41.5,34.2,29.48,WSW,249,5.8,5.8,75,0.00,SCT,OVC,0.09,0.0,WeatherDisplay:10.37,2013-02-01 14:58:00,
2013-02-01 15:03:00,41.5,34.2,29.48,SW,225,6.9,6.9,75,0.00,BKN,OVC,0.09,0.0,WeatherDisplay:10.37,2013-02-01 15:03:00,
2013-02-01 15:08:00,41.5,33.8,29.48,South,176,3.5,3.5,74,0.00,BKN,OVC,0.09,0.0,WeatherDisplay:10.37,2013-02-01 15:08:00,
2013-02-01 15:13:00,41.5,33.8,29.49,South,179,6.9,6.9,74,0.00,BKN,OVC,0.09,0.0,WeatherDisplay:10.37,2013-02-01 15:13:00,
2013-02-01 15:18:00,41.4,33.7,29.49,WSW,241,5.8,5.8,74,0.00,BKN,OVC,0.09,0.0,WeatherDisplay:10.37,2013-02-01 15:18:00,
2013-02-01 15:23:00,41.2,33.2,29.49,North,360,6.9,6.9,73,0.00,BKN,OVC,0.09,0.0,WeatherDisplay:10.37,2013-02-01 15:23:00,
2013-02-01 15:28:00,41.1,33.1,29.49,NNW,347,6.9,6.9,73,0.00,BKN,OVC,0.09,0.0,WeatherDisplay:10.37,2013-02-01 15:28:00,
2013-02-01 15:33:00,41.1,32.8,29.49,SW,221,9.2,9.2,72,0.00,BKN,OVC,0.09,0.0,WeatherDisplay:10.37,2013-02-01 15:33:00,
2013-02-01 15:38:00,41.1,32.8,29.49,NNW,337,7.0,7.0,72,0.00,BKN,OVC,0.09,0.0,WeatherDisplay:10.37,2013-02-01 15:38:00,
2013-02-01 15:43:00,41.0,32.3,29.50,WNW,291,6.9,6.9,71,0.00,BKN,OVC,0.09,0.0,WeatherDisplay:10.37,2013-02-01 15:43:00,
2013-02-01 15:48:00,41.0,32.3,29.50,ENE,72,6.9,6.9,71,0.00,BKN,OVC,0.09,0.0,WeatherDisplay:10.37,2013-02-01 15:48:00,
2013-02-01 15:53:00,40.8,32.1,29.51,North,357,8.1,8.1,71,0.00,BKN,OVC,0.09,0.0,WeatherDisplay:10.37,2013-02-01 15:53:00,
2013-02-01 15:58:00,40.7,31.7,29.51,WNW,303,5.8,5.8,70,0.00,BKN,OVC,0.09,0.0,WeatherDisplay:10.37,2013-02-01 15:58:00,
2013-02-01 16:03:00,40.6,31.6,29.51,West,266,5.0,5.0,70,0.00,BKN,OVC,0.09,0.0,WeatherDisplay:10.37,2013-02-01 16:03:00,
2013-02-01 16:08:00,40.4,31.4,29.52,SE,124,3.5,3.5,70,0.00,BKN,OVC,0.09,0.0,WeatherDisplay:10.37,2013-02-01 16:08:00,
2013-02-01 16:13:00,40.2,31.2,29.53,WNW,291,4.6,4.6,70,0.00,BKN,OVC,0.09,0.0,WeatherDisplay:10.37,2013-02-01 16:13:00,
2013-02-01 16:18:00,40.1,31.4,29.53,NW,314,5.8,5.8,71,0.00,FEW,OVC,0.09,0.0,WeatherDisplay:10.37,2013-02-01 16:18:00,
2013-02-01 16:23:00,40.1,30.0,29.53,WNW,287,5.8,5.8,67,0.00,FEW,OVC,0.09,0.0,WeatherDisplay:10.37,2013-02-01 16:23:00,
2013-02-01 16:28:00,40.2,30.5,29.54,WNW,285,5.8,5.8,68,0.00,FEW,OVC,0.09,0.0,WeatherDisplay:10.37,2013-02-01 16:28:00,
2013-02-01 16:33:00,40.1,30.7,29.54,South,183,4.6,4.6,69,0.00,SCT,OVC,0.09,0.0,WeatherDisplay:10.37,2013-02-01 16:33:00,
2013-02-01 16:38:00,40.0,30.6,29.55,NW,305,5.8,5.8,69,0.00,SCT,OVC,0.09,0.0,WeatherDisplay:10.37,2013-02-01 16:38:00,
2013-02-01 16:43:00,39.8,30.5,29.55,WSW,258,3.5,3.5,69,0.00,SCT,OVC,0.09,0.0,WeatherDisplay:10.37,2013-02-01 16:43:00,
2013-02-01 16:48:00,39.8,30.1,29.56,North,11,3.5,3.5,68,0.00,SCT,OVC,0.09,0.0,WeatherDisplay:10.37,2013-02-01 16:48:00,
2013-02-01 16:53:00,39.8,30.1,29.56,WNW,292,4.6,4.6,68,0.00,SCT,OVC,0.09,0.0,WeatherDisplay:10.37,2013-02-01 16:53:00,
2013-02-01 16:58:00,39.6,29.9,29.56,NW,314,4.6,4.6,68,0.00,SCT,OVC,0.09,0.0,WeatherDisplay:10.37,2013-02-01 16:58:00,
2013-02-01 17:03:00,39.3,30.3,29.56,NW,319,3.5,3.5,70,0.00,SCT,OVC,0.09,0.0,WeatherDisplay:10.37,2013-02-01 17:03:00,
2013-02-01 17:08:00,38.9,30.6,29.57,NW,305,2.3,2.3,72,0.00,SCT,OVC,0.09,0.0,WeatherDisplay:10.37,2013-02-01 17:08:00,
2013-02-01 17:13:00,38.6,30.4,29.57,NW,306,3.5,3.5,72,0.00,SCT,OVC,0.09,0.0,WeatherDisplay:10.37,2013-02-01 17:13:00,
2013-02-01 17:18:00,38.5,30.3,29.58,West,269,4.0,4.0,72,0.00,SCT,OVC,0.09,0.0,WeatherDisplay:10.37,2013-02-01 17:18:00,
2013-02-01 17:23:00,38.5,29.9,29.58,WNW,290,4.6,4.6,71,0.00,SCT,OVC,0.09,0.0,WeatherDisplay:10.37,2013-02-01 17:23:00,
2013-02-01 17:28:00,38.5,29.9,29.59,WNW,288,3.5,3.5,71,0.00,SCT,OVC,0.09,0.0,WeatherDisplay:10.37,2013-02-01 17:28:00,
2013-02-01 17:33:00,38.4,30.2,29.59,WNW,291,2.3,2.3,72,0.00,BKN,OVC,0.09,0.0,WeatherDisplay:10.37,2013-02-01 17:33:00,
2013-02-01 17:38:00,38.0,30.4,29.60,NW,310,2.3,2.3,74,0.00,BKN,OVC,0.09,0.0,WeatherDisplay:10.37,2013-02-01 17:38:00,
2013-02-01 17:43:00,37.7,30.2,29.60,NW,315,3.5,3.5,74,0.00,BKN,OVC,0.09,0.0,WeatherDisplay:10.37,2013-02-01 17:43:00,
2013-02-01 17:48:00,37.5,30.3,29.61,NW,312,3.5,3.5,75,0.00,BKN,OVC,0.09,0.0,WeatherDisplay:10.37,2013-02-01 17:48:00,
2013-02-01 17:53:00,37.3,30.1,29.61,WNW,291,2.3,2.3,75,0.00,BKN,OVC,0.09,0.0,WeatherDisplay:10.37,2013-02-01 17:53:00,
2013-02-01 17:58:00,37.1,30.2,29.62,NW,309,3.5,3.5,76,0.00,BKN,OVC,0.09,0.0,WeatherDisplay:10.37,2013-02-01 17:58:00,
2013-02-01 18:03:00,37.1,29.9,29.62,NW,314,3.5,3.5,75,0.00,FEW,OVC,0.09,0.0,WeatherDisplay:10.37,2013-02-01 18:03:00,
2013-02-01 18:08:00,37.2,30.0,29.62,WNW,294,2.3,2.3,75,0.00,FEW,OVC,0.09,0.0,WeatherDisplay:10.37,2013-02-01 18:08:00,
2013-02-01 18:13:00,37.4,29.9,29.62,WNW,295,3.5,3.5,74,0.00,FEW,OVC,0.09,0.0,WeatherDisplay:10.37,2013-02-01 18:13:00,
2013-02-01 18:18:00,37.5,30.0,29.63,NW,311,2.3,2.3,74,0.00,FEW,OVC,0.09,0.0,WeatherDisplay:10.37,2013-02-01 18:18:00,
2013-02-01 18:23:00,37.3,30.1,29.64,NW,306,2.3,2.3,75,0.00,FEW,OVC,0.09,0.0,WeatherDisplay:10.37,2013-02-01 18:23:00,
2013-02-01 18:28:00,37.0,30.1,29.64,NW,310,2.0,2.0,76,0.00,FEW,OVC,0.09,0.0,WeatherDisplay:10.37,2013-02-01 18:28:00,
2013-02-01 18:33:00,36.8,29.9,29.64,NW,317,2.3,2.3,76,0.00,FEW,OVC,0.09,0.0,WeatherDisplay:10.37,2013-02-01 18:33:00,
2013-02-01 18:38:00,36.8,29.9,29.65,NW,310,2.3,2.3,76,0.00,FEW,OVC,0.09,0.0,WeatherDisplay:10.37,2013-02-01 18:38:00,
2013-02-01 18:43:00,36.7,29.8,29.65,WNW,287,3.5,3.5,76,0.00,FEW,OVC,0.09,0.0,WeatherDisplay:10.37,2013-02-01 18:43:00,
2013-02-01 18:48:00,36.9,29.4,29.65,SSE,163,4.6,4.6,74,0.00,FEW,OVC,0.09,0.0,WeatherDisplay:10.37,2013-02-01 18:48:00,
2013-02-01 18:53:00,37.2,29.7,29.65,NW,307,3.5,3.5,74,0.00,FEW,OVC,0.09,0.0,WeatherDisplay:10.37,2013-02-01 18:53:00,
2013-02-01 18:58:00,37.4,29.5,29.66,WNW,294,3.5,3.5,73,0.00,FEW,OVC,0.09,0.0,WeatherDisplay:10.37,2013-02-01 18:58:00,
2013-02-01 19:03:00,37.6,29.7,29.66,WNW,302,3.0,3.0,73,0.00,SCT,OVC,0.09,0.0,WeatherDisplay:10.37,2013-02-01 19:03:00,
2013-02-01 19:08:00,37.8,29.6,29.66,SSW,200,3.5,3.5,72,0.00,SCT,OVC,0.09,0.0,WeatherDisplay:10.37,2013-02-01 19:08:00,
2013-02-01 19:13:00,37.8,29.6,29.67,West,274,1.2,1.2,72,0.00,SCT,OVC,0.09,0.0,WeatherDisplay:10.37,2013-02-01 19:13:00,
2013-02-01 19:18:00,37.6,29.4,29.67,WNW,291,3.5,3.5,72,0.00,SCT,OVC,0.09,0.0,WeatherDisplay:10.37,2013-02-01 19:18:00,
2013-02-01 19:24:00,37.4,29.2,29.67,West,263,1.2,1.2,72,0.00,SCT,OVC,0.09,0.0,WeatherDisplay:10.37,2013-02-01 19:24:00,
2013-02-01 19:29:00,37.2,29.0,29.68,WNW,290,1.2,0.0,72,0.00,SCT,OVC,0.09,0.0,WeatherDisplay:10.37,2013-02-01 19:29:00,
2013-02-01 19:34:00,37.0,29.1,29.68,WSW,251,0.0,0.1,73,0.00,CLR,OVC,0.09,0.0,WeatherDisplay:10.37,2013-02-01 19:34:00,
2013-02-01 19:39:00,36.9,29.1,29.68,WNW,290,1.2,1.2,73,0.00,CLR,OVC,0.09,0.0,WeatherDisplay:10.37,2013-02-01 19:39:00,
2013-02-01 19:44:00,36.8,29.3,29.69,West,273,1.2,1.2,74,0.00,CLR,OVC,0.09,0.0,WeatherDisplay:10.37,2013-02-01 19:44:00,
2013-02-01 19:49:00,36.7,29.2,29.69,WNW,298,2.3,0.0,74,0.00,CLR,OVC,0.09,0.0,WeatherDisplay:10.37,2013-02-01 19:49:00,
2013-02-01 19:54:00,36.7,29.5,29.69,NW,321,1.2,1.2,75,0.00,CLR,OVC,0.09,0.0,WeatherDisplay:10.37,2013-02-01 19:54:00,
2013-02-01 19:59:00,36.7,29.5,29.69,NNW,332,2.3,2.3,75,0.00,CLR,OVC,0.09,0.0,WeatherDisplay:10.37,2013-02-01 19:59:00,
2013-02-01 20:04:00,36.7,29.5,29.69,WNW,290,3.5,3.5,75,0.00,CLR,OVC,0.09,0.0,WeatherDisplay:10.37,2013-02-01 20:04:00,
2013-02-01 20:09:00,36.7,29.5,29.70,NW,305,2.3,2.3,75,0.00,CLR,OVC,0.09,0.0,WeatherDisplay:10.37,2013-02-01 20:09:00,
2013-02-01 20:14:00,36.6,29.4,29.70,NW,304,3.5,3.5,75,0.00,CLR,OVC,0.09,0.0,WeatherDisplay:10.37,2013-02-01 20:14:00,
2013-02-01 20:19:00,36.7,29.5,29.71,SSE,162,3.5,3.5,75,0.00,CLR,OVC,0.09,0.0,WeatherDisplay:10.37,2013-02-01 20:19:00,
2013-02-01 20:24:00,36.8,29.6,29.71,NNW,335,2.3,2.3,75,0.00,CLR,OVC,0.09,0.0,WeatherDisplay:10.37,2013-02-01 20:24:00,
2013-02-01 20:29:00,36.8,29.6,29.72,SE,136,1.2,1.2,75,0.00,CLR,OVC,0.09,0.0,WeatherDisplay:10.37,2013-02-01 20:29:00,
2013-02-01 20:34:00,36.9,29.7,29.72,NW,310,3.5,3.5,75,0.00,CLR,OVC,0.09,0.0,WeatherDisplay:10.37,2013-02-01 20:34:00,
2013-02-01 20:39:00,37.1,29.6,29.72,WNW,285,4.0,4.0,74,0.00,CLR,OVC,0.09,0.0,WeatherDisplay:10.37,2013-02-01 20:39:00,
2013-02-01 20:44:00,37.3,29.4,29.72,WSW,256,1.2,1.2,73,0.00,CLR,OVC,0.09,0.0,WeatherDisplay:10.37,2013-02-01 20:44:00,
2013-02-01 20:49:00,37.3,29.4,29.72,NW,317,3.5,3.5,73,0.00,CLR,OVC,0.09,0.0,WeatherDisplay:10.37,2013-02-01 20:49:00,
2013-02-01 20:54:00,37.3,29.4,29.73,NW,310,3.5,3.5,73,0.00,CLR,OVC,0.09,0.0,WeatherDisplay:10.37,2013-02-01 20:54:00,
2013-02-01 20:59:00,37.3,29.4,29.73,WSW,257,4.6,4.6,73,0.00,CLR,OVC,0.09,0.0,WeatherDisplay:10.37,2013-02-01 20:59:00,
2013-02-01 21:04:00,37.4,29.5,29.73,WNW,284,3.5,3.5,73,0.00,CLR,OVC,0.09,0.0,WeatherDisplay:10.37,2013-02-01 21:04:00,
2013-02-01 21:09:00,37.4,29.2,29.74,WNW,299,3.5,3.5,72,0.00,CLR,OVC,0.09,0.0,WeatherDisplay:10.37,2013-02-01 21:09:00,
2013-02-01 21:14:00,37.4,29.2,29.74,WNW,302,3.0,3.0,72,0.00,CLR,OVC,0.09,0.0,WeatherDisplay:10.37,2013-02-01 21:14:00,
2013-02-01 21:19:00,37.4,29.5,29.74,NW,307,2.3,2.3,73,0.00,CLR,OVC,0.09,0.0,WeatherDisplay:10.37,2013-02-01 21:19:00,
2013-02-01 21:24:00,37.2,29.3,29.74,NW,307,3.5,3.5,73,0.00,CLR,OVC,0.09,0.0,WeatherDisplay:10.37,2013-02-01 21:24:00,
2013-02-01 21:29:00,37.1,29.2,29.75,NW,314,3.5,3.5,73,0.00,CLR,OVC,0.09,0.0,WeatherDisplay:10.37,2013-02-01 21:29:00,
2013-02-01 21:34:00,36.9,29.4,29.75,WNW,295,1.2,1.2,74,0.00,CLR,OVC,0.09,0.0,WeatherDisplay:10.37,2013-02-01 21:34:00,
2013-02-01 21:39:00,36.8,29.3,29.75,NNW,333,2.3,2.3,74,0.00,CLR,OVC,0.09,0.0,WeatherDisplay:10.37,2013-02-01 21:39:00,
2013-02-01 21:44:00,36.6,29.4,29.75,NW,305,1.2,1.2,75,0.00,CLR,OVC,0.09,0.0,WeatherDisplay:10.37,2013-02-01 21:44:00,
2013-02-01 21:49:00,36.5,29.3,29.75,WNW,295,3.5,3.5,75,0.00,CLR,OVC,0.09,0.0,WeatherDisplay:10.37,2013-02-01 21:49:00,
2013-02-01 21:54:00,36.7,29.2,29.76,NW,311,4.6,4.6,74,0.00,CLR,OVC,0.09,0.0,WeatherDisplay:10.37,2013-02-01 21:54:00,
2013-02-01 21:59:00,36.9,29.4,29.76,WNW,292,1.2,1.2,74,0.00,CLR,OVC,0.09,0.0,WeatherDisplay:10.37,2013-02-01 21:59:00,
2013-02-01 22:04:00,37.0,29.1,29.76,NW,324,2.3,2.3,73,0.00,SCT,OVC,0.09,0.0,WeatherDisplay:10.37,2013-02-01 22:04:00,
2013-02-01 22:09:00,37.1,28.9,29.77,WSW,248,5.0,5.0,72,0.00,SCT,OVC,0.09,0.0,WeatherDisplay:10.37,2013-02-01 22:09:00,
2013-02-01 22:14:00,37.2,29.3,29.77,WNW,290,3.5,3.5,73,0.00,SCT,OVC,0.09,0.0,WeatherDisplay:10.37,2013-02-01 22:14:00,
2013-02-01 22:19:00,37.2,29.3,29.77,NW,321,2.3,2.3,73,0.00,SCT,OVC,0.09,0.0,WeatherDisplay:10.37,2013-02-01 22:19:00,
2013-02-01 22:24:00,37.2,29.3,29.78,WNW,293,2.3,2.3,73,0.00,SCT,OVC,0.09,0.0,WeatherDisplay:10.37,2013-02-01 22:24:00,
2013-02-01 22:29:00,37.0,29.1,29.78,WNW,297,1.2,1.2,73,0.00,SCT,OVC,0.09,0.0,WeatherDisplay:10.37,2013-02-01 22:29:00,
2013-02-01 22:34:00,36.8,29.3,29.79,NW,307,3.5,3.5,74,0.00,SCT,OVC,0.09,0.0,WeatherDisplay:10.37,2013-02-01 22:34:00,
2013-02-01 22:39:00,36.7,29.2,29.79,NW,316,0.0,0.0,74,0.00,SCT,OVC,0.09,0.0,WeatherDisplay:10.37,2013-02-01 22:39:00,
2013-02-01 22:44:00,36.4,28.9,29.79,SW,225,1.2,1.2,74,0.00,SCT,OVC,0.09,0.0,WeatherDisplay:10.37,2013-02-01 22:44:00,
2013-02-01 22:49:00,36.3,29.1,29.80,WNW,300,1.2,1.2,75,0.00,BKN,OVC,0.09,0.0,WeatherDisplay:10.37,2013-02-01 22:49:00,
2013-02-01 22:54:00,36.3,29.1,29.80,NW,309,2.0,2.0,75,0.00,BKN,OVC,0.09,0.0,WeatherDisplay:10.37,2013-02-01 22:54:00,
2013-02-01 22:59:00,36.4,29.2,29.80,WNW,283,1.2,1.2,75,0.00,BKN,OVC,0.09,0.0,WeatherDisplay:10.37,2013-02-01 22:59:00,
2013-02-01 23:04:00,36.4,29.2,29.81,SE,138,0.0,0.0,75,0.00,FEW,OVC,0.09,0.0,WeatherDisplay:10.37,2013-02-01 23:04:00,
2013-02-01 23:09:00,36.3,29.1,29.81,NNW,328,1.2,1.2,75,0.00,FEW,OVC,0.09,0.0,WeatherDisplay:10.37,2013-02-01 23:09:00,
2013-02-01 23:14:00,36.3,29.5,29.81,NW,310,0.0,0.0,76,0.00,FEW,OVC,0.09,0.0,WeatherDisplay:10.37,2013-02-01 23:14:00,
2013-02-01 23:19:00,36.1,29.3,29.81,ESE,113,1.2,0.0,76,0.00,FEW,OVC,0.09,0.0,WeatherDisplay:10.37,2013-02-01 23:19:00,
2013-02-01 23:24:00,35.9,29.4,29.81,SE,133,2.0,2.0,77,0.00,FEW,OVC,0.09,0.0,WeatherDisplay:10.37,2013-02-01 23:24:00,
2013-02-01 23:29:00,36.1,29.3,29.82,WSW,258,2.3,2.3,76,0.00,FEW,OVC,0.09,0.0,WeatherDisplay:10.37,2013-02-01 23:29:00,
2013-02-01 23:34:00,36.4,29.2,29.82,NW,304,2.3,2.3,75,0.00,CLR,OVC,0.09,0.0,WeatherDisplay:10.37,2013-02-01 23:34:00,
2013-02-01 23:39:00,36.5,29.0,29.82,NW,315,3.5,0.0,74,0.00,CLR,OVC,0.09,0.0,WeatherDisplay:10.37,2013-02-01 23:39:00,
2013-02-01 23:44:00,36.7,29.2,29.82,WSW,250,2.3,2.3,74,0.00,CLR,OVC,0.09,0.0,WeatherDisplay:10.37,2013-02-01 23:44:00,
2013-02-01 23:49:00,36.8,29.3,29.82,WSW,255,2.3,2.3,74,0.00,CLR,OVC,0.09,0.0,WeatherDisplay:10.37,2013-02-01 23:49:00,
2013-02-01 23:54:00,36.9,29.1,29.83,SW,224,1.2,1.2,73,0.00,CLR,OVC,0.09,0.0,WeatherDisplay:10.37,2013-02-01 23:54:00,
2013-02-01 23:59:00,36.9,29.1,29.83,ESE,106,3.5,3.5,73,0.00,CLR,OVC,0.09,0.0,WeatherDisplay:10.37,2013-02-01 23:59:00,